Location: Bauerbach
(50.4985°N, 10.3912°E)
Time: 07:53:44
(UTC+00:00)

CORIOLIS - Pass Details

Date: 13 January 2026
Orbit: 816 x 835 km, 98.7° (Epoch: 15 February)

Event Time Altitude Azimuth Distance (km) Brightness Sun altitude
Rises 06:16:40 0° 12° (NNE) 3,398 7.2 -8.9°
Reaches altitude 10° 06:19:03 10° 9° (N) 2,460 6.5 -8.6°
Maximum altitude 06:24:25 60° 291° (WNW) 952 4.2 -7.8°
Drops below altitude 10° 06:29:44 10° 212° (SSW) 2,441 6.5 -7.0°
Sets 06:32:06 0° 209° (SSW) 3,369 7.3 -6.7°
